Date String (YYYY-MM-DD hh:mm:ss) UTC,Instrument flags,absolute air pressure of the measurement (hPa),sample flow rate (lpm),inlet stack bypass flow (lpm),air temperature of the measurement (°C),ambient temperature measured by the external sensor (°C),aerosol sample conditioner tube jacket temperature (°C),OPC LED temperature (°C),internal box temperature (°C),relative humidity of the measurement (%),span deviation,mass concentration of particles derived from Lorenz-Mie calculation of OPC scattering (μg/m³),mass concentration of particles derived from Lorenz-Mie calculation of OPC scattering (μg/m³),mass concentration of particles derived from Lorenz-Mie calculation of OPC scattering (μg/m³)
DateTimeUTC,F1_M11,P_M11,Q1_M11,Q2_M11,T1_M11,T2_M11,T3_M11,T4_M11,T5_M11,U1_M11,ZSPAN_M11,X0_M11,X2_M11,X1_M11
2024-03-24 21:00:00,SystemResetWarning,0806.3,5.00,000.00,023.6,022.9,000.0,032.0,025.4,17.7,0003.0,0018.38,0010.07,0008.74
2024-03-24 21:01:00,SystemResetWarning,0806.3,4.99,000.00,023.6,022.9,000.0,032.0,025.4,17.6,0002.6,0018.43,0010.06,0008.70
2024-03-24 21:02:00,SystemResetWarning,0806.3,4.99,000.00,023.6,022.9,000.0,032.0,025.4,17.5,0002.2,0018.89,0010.08,0008.70
2024-03-24 21:03:00,SystemResetWarning,0806.3,4.99,000.00,023.6,022.9,000.0,032.0,025.5,17.5,0002.2,0019.29,0010.05,0008.71
2024-03-24 21:04:00,SystemResetWarning,0806.3,5.01,000.00,023.6,022.9,000.0,032.0,025.4,17.4,0001.8,0019.54,0009.97,0008.68
2024-03-24 21:05:00,SystemResetWarning,0806.3,5.01,000.00,023.6,022.9,000.0,032.0,025.5,17.8,0001.5,0020.14,0009.97,0008.64
2024-03-24 21:06:00,SystemResetWarning,0806.3,5.00,000.00,023.6,022.9,000.0,032.1,025.5,17.2,0001.4,0020.15,0009.94,0008.59
2024-03-24 21:07:00,SystemResetWarning,0806.3,4.99,000.00,023.7,023.0,000.0,032.1,025.5,17.1,0001.2,0019.87,0009.84,0008.54
2024-03-24 21:08:00,SystemResetWarning,0806.3,5.00,000.00,023.7,023.0,000.0,032.1,025.5,17.0,0001.3,0019.47,0009.70,0008.45
2024-03-24 21:09:00,SystemResetWarning,0806.3,5.00,000.00,023.7,023.0,000.0,032.1,025.5,17.1,0001.5,0019.25,0009.59,0008.38
2024-03-24 21:10:00,SystemResetWarning,0806.4,5.01,000.00,023.7,023.0,000.0,032.1,025.5,16.7,0002.0,0018.30,0009.48,0008.27
2024-03-24 21:11:00,SystemResetWarning,0806.4,5.00,000.00,023.7,023.0,000.0,032.1,025.5,16.3,0002.1,0018.34,0009.36,0008.15
2024-03-24 21:12:00,SystemResetWarning,0806.3,4.98,000.00,023.7,023.0,000.0,032.1,025.5,16.7,0002.0,0017.81,0009.21,0008.03
2024-03-24 21:13:00,SystemResetWarning,0806.3,5.00,000.00,023.7,023.0,000.0,032.1,025.5,16.7,0002.4,0017.28,0009.10,0007.92
2024-03-24 21:14:00,SystemResetWarning,0806.2,5.02,000.00,023.7,023.0,000.0,032.1,025.5,16.8,0002.5,0018.05,0008.98,0007.82
2024-03-24 21:15:00,SystemResetWarning,0806.2,4.99,000.00,023.7,023.0,000.0,032.1,025.5,16.7,0002.5,0017.61,0008.90,0007.73
2024-03-24 21:16:00,SystemResetWarning,0806.3,4.99,000.00,023.7,023.0,000.0,032.1,025.5,16.5,0002.3,0016.90,0008.79,0007.68
2024-03-24 21:17:00,SystemResetWarning,0806.2,5.00,000.00,023.7,023.0,000.0,032.2,025.5,16.5,0002.2,0016.77,0008.65,0007.60
2024-03-24 21:18:00,SystemResetWarning,0806.2,5.02,000.00,023.7,023.0,000.0,032.2,025.5,16.4,0002.1,0016.64,0008.57,0007.53
2024-03-24 21:19:00,SystemResetWarning,0806.2,5.00,000.00,023.8,023.1,000.0,032.2,025.5,16.5,0001.9,0016.89,0008.54,0007.51
2024-03-24 21:20:00,SystemResetWarning,0806.1,4.99,000.00,023.8,023.1,000.0,032.2,025.6,16.7,0001.8,0017.29,0008.53,0007.47
2024-03-24 21:21:00,SystemResetWarning,0806.2,4.99,000.00,023.8,023.1,000.0,032.2,025.6,16.8,0001.4,0017.29,0008.48,0007.43
2024-03-24 21:22:00,SystemResetWarning,0806.1,4.99,000.00,023.8,023.2,000.0,032.2,025.6,16.7,0001.1,0016.95,0008.43,0007.40
2024-03-24 21:23:00,SystemResetWarning,0806.2,5.01,000.00,023.8,023.2,000.0,032.2,025.6,16.6,0001.3,0018.05,0008.38,0007.35
2024-03-24 21:24:00,SystemResetWarning,0806.1,5.01,000.00,023.8,023.2,000.0,032.2,025.6,16.4,0001.4,0017.79,0008.29,0007.28
2024-03-24 21:25:00,SystemResetWarning,0806.2,5.00,000.00,023.8,023.2,000.0,032.2,025.6,16.4,0001.2,0016.59,0008.21,0007.22
2024-03-24 21:26:00,SystemResetWarning,0806.2,5.00,000.00,023.8,023.2,000.0,032.2,025.6,16.0,0001.4,0016.24,0008.17,0007.17
2024-03-24 21:27:00,SystemResetWarning,0806.2,5.00,000.00,023.9,023.2,000.0,032.3,025.6,16.1,0001.7,0016.48,0008.18,0007.13
2024-03-24 21:28:00,SystemResetWarning,0806.1,5.00,000.00,023.9,023.2,000.0,032.3,025.6,16.0,0001.6,0016.44,0008.23,0007.13
2024-03-24 21:29:00,SystemResetWarning,0806.1,4.99,000.00,023.9,023.2,000.0,032.3,025.6,16.2,0001.3,0017.17,0008.23,0007.11
2024-03-24 21:30:00,SystemResetWarning,0806.1,5.00,000.00,023.9,023.2,000.0,032.3,025.7,15.8,0001.3,0017.73,0008.22,0007.06
2024-03-24 21:31:00,SystemResetWarning,0806.1,4.99,000.00,023.9,023.2,000.0,032.3,025.7,15.8,0001.7,0017.35,0008.15,0007.01
2024-03-24 21:32:00,SystemResetWarning,0806.0,5.01,000.00,023.9,023.2,000.0,032.3,025.7,15.9,0001.7,0016.91,0008.15,0006.99
2024-03-24 21:33:00,SystemResetWarning,0806.0,5.01,000.00,023.9,023.2,000.0,032.3,025.7,15.8,0002.1,0016.84,0008.12,0006.96
2024-03-24 21:34:00,SystemResetWarning,0806.0,5.00,000.00,023.9,023.2,000.0,032.3,025.7,15.6,0001.9,0016.95,0008.06,0006.93
2024-03-24 21:35:00,SystemResetWarning,0806.0,4.99,000.00,023.9,023.3,000.0,032.3,025.7,15.9,0001.6,0017.29,0007.96,0006.89
2024-03-24 21:36:00,SystemResetWarning,0806.0,5.00,000.00,023.9,023.3,000.0,032.3,025.7,15.9,0001.8,0018.29,0007.95,0006.85
2024-03-24 21:37:00,SystemResetWarning,0806.0,5.00,000.00,023.9,023.3,000.0,032.4,025.7,15.8,0002.2,0018.63,0007.92,0006.80
2024-03-24 21:38:00,SystemResetWarning,0806.0,5.00,000.00,024.0,023.3,000.0,032.4,025.7,15.6,0001.7,0018.22,0007.92,0006.77
2024-03-24 21:39:00,SystemResetWarning,0806.0,5.00,000.00,024.0,023.3,000.0,032.4,025.8,15.8,0001.6,0018.21,0007.88,0006.74
2024-03-24 21:40:00,SystemResetWarning,0806.0,5.00,000.00,024.0,023.4,000.0,032.4,025.8,15.9,0001.9,0017.82,0007.81,0006.73
2024-03-24 21:41:00,SystemResetWarning,0806.0,5.00,000.00,024.0,023.4,000.0,032.4,025.9,16.3,0002.2,0016.94,0007.74,0006.71
2024-03-24 21:42:00,SystemResetWarning,0806.1,4.99,000.00,024.0,023.4,000.0,032.4,025.9,16.6,0002.2,0017.21,0007.77,0006.70
2024-03-24 21:43:00,SystemResetWarning,0806.2,4.99,000.00,024.0,023.4,000.0,032.4,025.9,16.7,0001.9,0017.46,0007.74,0006.67
2024-03-24 21:44:00,SystemResetWarning,0806.2,5.00,000.00,024.0,023.4,000.0,032.4,025.9,18.6,0001.6,0017.42,0007.80,0006.72
2024-03-24 21:45:00,SystemResetWarning,0806.0,5.01,000.00,024.1,023.4,000.0,032.4,025.9,19.9,0001.7,0017.76,0007.98,0006.87
2024-03-24 21:46:00,SystemResetWarning,0806.0,5.02,000.00,024.1,023.4,000.0,032.5,025.9,19.8,0001.9,0018.88,0008.24,0007.07
2024-03-24 21:47:00,SystemResetWarning,0806.0,5.00,000.00,024.1,023.4,000.0,032.5,025.9,20.0,0001.7,0020.43,0008.44,0007.25
2024-03-24 21:48:00,SystemResetWarning,0806.1,4.99,000.00,024.1,023.3,000.0,032.5,025.9,20.3,0001.4,0021.41,0008.67,0007.44
2024-03-24 21:49:00,SystemResetWarning,0806.1,4.99,000.00,024.0,023.3,000.0,032.5,025.9,20.2,0001.8,0022.37,0008.87,0007.61
2024-03-24 21:50:00,SystemResetWarning,0806.0,5.00,000.00,024.0,023.3,000.0,032.5,025.8,20.1,0001.8,0023.12,0009.00,0007.72
2024-03-24 21:51:00,SystemResetWarning,0806.0,5.01,000.00,024.0,023.2,000.0,032.5,025.8,20.0,0001.4,0023.71,0009.21,0007.86
2024-03-24 21:52:00,SystemResetWarning,0806.0,5.01,000.00,024.0,023.2,000.0,032.5,025.8,19.8,0001.4,0024.56,0009.41,0008.00
2024-03-24 21:53:00,SystemResetWarning,0806.0,4.99,000.00,024.0,023.2,000.0,032.5,025.7,19.9,0001.4,0024.36,0009.58,0008.19
2024-03-24 21:54:00,SystemResetWarning,0805.9,5.00,000.00,024.0,023.1,000.0,032.5,025.7,19.9,0001.4,0024.88,0009.74,0008.35
2024-03-24 21:55:00,SystemResetWarning,0805.9,5.00,000.00,024.0,023.1,000.0,032.5,025.7,20.1,0001.9,0026.48,0009.94,0008.52
2024-03-24 21:56:00,SystemResetWarning,0806.0,4.99,000.00,024.0,023.1,000.0,032.5,025.7,20.2,0002.3,0027.48,0010.04,0008.61
2024-03-24 21:57:00,SystemResetWarning,0806.1,5.00,000.00,024.0,023.1,000.0,032.5,025.7,20.2,0002.2,0027.22,0010.08,0008.66
2024-03-24 21:58:00,SystemResetWarning,0806.2,5.01,000.00,024.0,023.1,000.0,032.5,025.7,20.3,0002.5,0025.67,0010.13,0008.73
2024-03-24 21:59:00,SystemResetWarning,0806.1,5.00,000.00,024.0,023.0,000.0,032.5,025.6,20.2,0002.6,0024.50,0010.22,0008.82
